Lid_Strength_Index
13 14 14 14 15 15 16 17 17 16 17 17 17 17 17 17 17 17 18 18 19 19 19 19 19 17 17 16 16 15 16 15 17 15 14 14 14 14 15 15 16 17 16
14 15 15 15 16 17 17 17 17 17 17 17 17 17 18 18 18 19 19 19 20 20 19 19 19 17 18 17 17 18 18 17 18 19 17 17 17 18 18 18 18 18 18
16 16 17 16 18 18 18 18 18 18 18 19 19 19 19 19 19 19 19 20 20 20 19 19 19 19 19 19 19 19 19 18 18 18 18 17 16 16 17 17 17 16 16
17 17 18 18 18 19 18 18 18 18 18 18 19 20 20 20 19 19 19 19 19 19 19 19 19 18 18 17 17 17 17 17 16 16 17 17 16 16 17 18 18 17 17
18 19 19 18 18 19 19 19 19 18 18 18 18 18 18 19 19 20 20 20 20 19 18 17 17 17 16 16 17 17 17 17 17 18 18 18 19 19 20 19 19 19 18
19 19 19 19 19 19 19 19 18 18 18 18 18 18 18 18 18 18 18 19 18 18 19 17 16 17 16 15 16 16 17 19 19 19 20 21 21 20 20 20 20 21 22
18 18 18 19 20 20 20 19 19 19 18 18 18 18 17 16 16 16 17 17 18 18 19 19 18 17 17 17 16 17 18 18 17 19 21 21 22 21 21 21 22 22 22
19 19 19 20 20 20 20 20 20 20 19 19 17 16 15 15 15 15 16 17 18 18 19 19 20 19 18 18 18 19 20 20 19 19 20 21 21 20 20 21 21 22 22
20 20 20 20 20 20 21 21 20 19 19 18 18 17 16 16 14 15 17 18 19 19 19 20 20 20 18 17 19 20 21 20 18 19 19 20 19 19 20 21 24 25 26
21 21 21 21 20 20 20 20 19 19 19 18 18 18 17 17 15 15 16 18 19 20 20 20 19 20 18 18 20 22 23 21 24 24 24 23 22 22 21 22 22 25 25
20 20 20 20 20 20 20 20 20 20 20 20 20 19 19 18 17 16 16 18 19 20 21 22 22 20 19 20 20 23 22 21 25 26 25 25 24 23 22 21 21 22 23
20 20 20 19 19 19 20 20 20 20 21 21 21 20 19 19 17 17 17 17 18 21 23 23 23 21 21 22 23 22 22 24 26 26 26 26 24 23 22 21 21 20 19
22 22 21 21 20 19 20 20 20 20 20 21 21 22 21 19 18 18 18 19 20 22 23 24 23 23 24 25 25 23 26 26 27 27 27 24 23 22 21 21 20 19 19
23 23 22 22 22 20 20 20 20 20 21 21 22 22 21 20 19 19 20 22 21 22 25 27 26 26 26 26 27 26 26 26 27 26 24 23 22 22 22 20 20 19 20
24 23 23 23 23 23 22 21 21 20 20 21 21 21 22 21 20 19 21 23 23 24 29 28 28 28 28 28 27 27 26 26 25 24 23 23 23 22 20 19 19 19 20
23 24 24 24 24 24 23 23 21 21 21 20 20 20 20 20 20 20 21 23 23 25 29 30 30 29 29 29 29 28 26 25 24 24 23 22 22 21 21 19 18 19 20
25 25 25 25 25 25 26 26 26 24 24 23 21 21 21 21 21 21 23 25 25 28 30 30 30 30 29 29 28 27 26 24 24 23 22 21 21 21 21 20 20 19 20
28 29 25 26 26 26 27 27 28 28 28 27 26 24 23 23 23 23 24 27 29 29 30 30 30 29 29 28 26 26 25 24 23 22 22 21 21 21 21 21 20 22 22
26 26 26 27 28 29 27 27 28 28 28 28 27 26 27 25 25 26 27 30 31 30 30 30 29 28 27 26 25 25 24 23 23 23 21 21 20 21 21 21 21 22 22
28 30 28 27 27 27 27 27 27 28 28 28 28 28 27 27 28 29 29 30 30 29 29 28 27 26 25 25 24 24 23 22 22 21 21 21 21 21 22 22 22 22 21
26 27 30 27 27 28 28 28 29 29 29 29 29 29 23 29 29 30 29 29 29 28 28 27 25 24 24 24 24 23 22 22 21 21 21 21 21 23 22 21 22 21 20
26 26 27 27 28 28 29 30 30 30 29 29 29 29 26 29 28 29 28 28 27 27 26 25 24 23 23 23 23 23 23 23 21 21 21 22 23 23 22 21 21 20 21
27 27 28 29 30 32 29 29 29 29 29 29 29 29 28 28 28 28 28 27 27 26 24 24 24 24 22 21 20 21 22 22 21 22 23 24 23 23 21 21 20 22 22
27 28 28 28 29 29 29 28 28 30 30 29 29 28 28 28 28 28 27 26 26 24 23 23 23 24 23 22 20 19 19 20 21 22 23 23 23 21 18 20 21 22 23
28 28 28 27 28 28 28 27 27 28 29 29 28 28 27 27 27 27 26 26 26 24 24 23 23 22 21 21 21 20 20 20 20 19 17 16 16 19 20 21 22 23 24
28 28 27 27 27 27 27 27 27 27 28 28 28 27 27 28 27 26 26 26 25 25 24 23 22 21 21 20 19 17 18 16 15 13 15 17 18 19 20 21 23 24 25